Location: Unspecified
(0.0000°N, 0.0000°E)
Time: 02:32:31
(UTC+00:00)

COSMOS 2251 DEB - Pass Details

Date: 23 December 2025
Orbit: 640 x 673 km, 73.9° (Epoch: 19 January)

Event Time Altitude Azimuth Distance (km) Brightness Sun altitude
Rises 19:52:13 0° 180° (S) 2,941 ? -25.7°
Reaches altitude 10° 19:54:35 10° 173° (S) 2,030 ? -26.2°
Enters shadow 19:56:21 22° 161° (SSE) 1,406 ? -26.6°
